N777BZ KALS-KDRO

Flight info

Callsign N777BZ
Flight time 0h 38m
Altitude 18000
Route ALS
Aircraft BE9L/L-SBDFGRY/SB1

Departure

Time 2026-05-05 03:22
Airport San Luis Valley Regional Airport/Bergman Field (KALS)

Arrival

Time 2026-05-05 04:00
Airport Durango La Plata County Airport (KDRO)
Time Latitude Longitude Altitude Speed Heading
2026-05-05 03:09 37.44356 -105.86384 7537 ft 0 kts 32°
2026-05-05 03:18 37.44371 -105.86363 7537 ft 5 kts 80°
2026-05-05 03:18 37.44378 -105.86296 7537 ft 10 kts 33°
2026-05-05 03:18 37.44446 -105.86240 7537 ft 13 kts 31°
2026-05-05 03:18 37.44534 -105.86173 7537 ft 12 kts 32°
2026-05-05 03:19 37.44554 -105.86125 7537 ft 0 kts 113°
2026-05-05 03:20 37.44546 -105.86111 7537 ft 5 kts 123°
2026-05-05 03:21 37.44512 -105.86059 7537 ft 10 kts 139°
2026-05-05 03:21 37.44423 -105.86079 7537 ft 9 kts 213°
2026-05-05 03:21 37.44419 -105.86083 7537 ft 0 kts 212°
2026-05-05 03:21 37.44220 -105.86240 7537 ft 74 kts 212°
2026-05-05 03:22 37.43628 -105.86677 7673 ft 110 kts 211°
2026-05-05 03:22 37.42860 -105.87173 7871 ft 136 kts 211°
2026-05-05 03:22 37.42019 -105.87769 8185 ft 145 kts 214°
2026-05-05 03:22 37.41150 -105.88474 8531 ft 150 kts 218°
2026-05-05 03:23 37.40219 -105.88959 9028 ft 146 kts 194°
2026-05-05 03:23 37.39193 -105.88953 9344 ft 153 kts 171°
2026-05-05 03:23 37.38264 -105.88277 9669 ft 159 kts 132°
2026-05-05 03:23 37.37619 -105.87111 9956 ft 163 kts 123°
2026-05-05 03:24 37.37072 -105.85873 10260 ft 165 kts 117°
2026-05-05 03:24 37.36533 -105.84605 10576 ft 165 kts 121°
2026-05-05 03:24 37.35938 -105.83366 10883 ft 166 kts 123°
2026-05-05 03:24 37.35284 -105.82151 11138 ft 169 kts 124°
2026-05-05 03:25 37.34612 -105.80944 11458 ft 168 kts 124°
2026-05-05 03:25 37.34246 -105.79562 11735 ft 167 kts 100°
2026-05-05 03:25 37.34049 -105.78145 12059 ft 166 kts 98°
2026-05-05 03:25 37.33890 -105.76671 12234 ft 173 kts 96°
2026-05-05 03:26 37.33763 -105.75201 12595 ft 167 kts 97°
2026-05-05 03:26 37.33391 -105.73794 12766 ft 175 kts 121°
2026-05-05 03:26 37.32509 -105.72784 13035 ft 172 kts 156°
2026-05-05 03:26 37.31366 -105.72619 13271 ft 167 kts 197°
2026-05-05 03:27 37.30371 -105.73229 13603 ft 157 kts 221°
2026-05-05 03:27 37.29620 -105.74200 13810 ft 156 kts 245°
2026-05-05 03:27 37.29597 -105.75516 13971 ft 154 kts 295°
2026-05-05 03:27 37.30203 -105.76530 14348 ft 146 kts 315°
2026-05-05 03:28 37.31012 -105.77321 14578 ft 147 kts 321°
2026-05-05 03:28 37.31822 -105.78083 14838 ft 147 kts 321°
2026-05-05 03:28 37.32641 -105.78867 15045 ft 149 kts 320°
2026-05-05 03:28 37.33451 -105.79684 15301 ft 147 kts 317°
2026-05-05 03:29 37.34193 -105.80571 15522 ft 148 kts 314°
2026-05-05 03:29 37.34919 -105.81480 15747 ft 148 kts 313°
2026-05-05 03:29 37.35642 -105.82365 16007 ft 145 kts 313°
2026-05-05 03:29 37.36251 -105.83360 16228 ft 145 kts 295°
2026-05-05 03:30 37.36437 -105.84618 16381 ft 151 kts 268°
2026-05-05 03:30 37.36079 -105.85870 16605 ft 155 kts 240°
2026-05-05 03:30 37.35448 -105.86955 16849 ft 154 kts 238°
2026-05-05 03:30 37.34798 -105.88064 16931 ft 162 kts 238°
2026-05-05 03:31 37.34324 -105.89310 17111 ft 157 kts 259°
2026-05-05 03:31 37.34104 -105.90642 17296 ft 155 kts 265°
2026-05-05 03:31 37.33938 -105.91981 17496 ft 155 kts 264°
2026-05-05 03:31 37.33770 -105.93336 17610 ft 158 kts 266°
2026-05-05 03:32 37.33666 -105.94688 17815 ft 155 kts 268°
2026-05-05 03:32 37.33537 -105.96042 17964 ft 158 kts 266°
2026-05-05 03:32 37.33413 -105.97459 17946 ft 167 kts 268°
2026-05-05 03:32 37.33308 -105.98955 17960 ft 175 kts 267°
2026-05-05 03:33 37.33179 -106.00483 18008 ft 178 kts 266°
2026-05-05 03:33 37.33044 -106.02049 17986 ft 185 kts 267°
2026-05-05 03:33 37.32858 -106.03692 17978 ft 190 kts 265°
2026-05-05 03:33 37.32700 -106.05313 18036 ft 190 kts 266°
2026-05-05 03:34 37.32570 -106.06993 17994 ft 194 kts 267°
2026-05-05 03:34 37.32397 -106.08685 18091 ft 192 kts 264°
2026-05-05 03:34 37.32186 -106.10344 18060 ft 196 kts 264°
2026-05-05 03:34 37.31986 -106.12065 18012 ft 200 kts 265°
2026-05-05 03:35 37.31805 -106.13781 18028 ft 199 kts 267°
2026-05-05 03:35 37.31670 -106.15525 18015 ft 201 kts 267°
2026-05-05 03:35 37.31502 -106.17292 18016 ft 202 kts 266°
2026-05-05 03:35 37.31318 -106.19016 18071 ft 201 kts 265°
2026-05-05 03:36 37.31152 -106.20805 17976 ft 207 kts 267°
2026-05-05 03:36 37.31025 -106.22586 18064 ft 203 kts 266°
2026-05-05 03:36 37.30862 -106.24335 18015 ft 207 kts 265°
2026-05-05 03:36 37.30669 -106.26146 17968 ft 208 kts 266°
2026-05-05 03:37 37.30475 -106.27920 18067 ft 204 kts 264°
2026-05-05 03:37 37.30296 -106.29691 18038 ft 206 kts 268°
2026-05-05 03:37 37.30167 -106.31460 18076 ft 205 kts 266°
2026-05-05 03:37 37.29982 -106.33252 18043 ft 207 kts 266°
2026-05-05 03:38 37.29820 -106.35046 18053 ft 206 kts 266°
2026-05-05 03:38 37.29641 -106.36823 18035 ft 208 kts 264°
2026-05-05 03:38 37.29402 -106.38620 18042 ft 207 kts 266°
2026-05-05 03:38 37.29261 -106.40413 18044 ft 207 kts 265°
2026-05-05 03:39 37.29050 -106.42214 18048 ft 207 kts 267°
2026-05-05 03:39 37.28916 -106.43997 18050 ft 207 kts 268°
2026-05-05 03:39 37.28783 -106.45803 18064 ft 206 kts 267°
2026-05-05 03:39 37.28630 -106.47608 18014 ft 209 kts 266°
2026-05-05 03:40 37.28430 -106.49405 18032 ft 208 kts 264°
2026-05-05 03:40 37.28190 -106.51170 18088 ft 206 kts 265°
2026-05-05 03:40 37.28031 -106.52972 18035 ft 208 kts 269°
2026-05-05 03:40 37.27925 -106.54771 18045 ft 207 kts 269°
2026-05-05 03:41 37.27795 -106.56564 18069 ft 206 kts 266°
2026-05-05 03:41 37.27587 -106.58371 18033 ft 209 kts 264°
2026-05-05 03:41 37.27325 -106.60155 18067 ft 207 kts 263°
2026-05-05 03:41 37.27117 -106.61930 18075 ft 206 kts 266°
2026-05-05 03:42 37.26994 -106.63722 18047 ft 207 kts 270°
2026-05-05 03:42 37.26872 -106.65511 18057 ft 207 kts 265°
2026-05-05 03:42 37.26661 -106.67314 18074 ft 207 kts 264°
2026-05-05 03:42 37.26455 -106.69096 18027 ft 209 kts 265°
2026-05-05 03:43 37.26301 -106.70912 18051 ft 207 kts 268°
2026-05-05 03:43 37.26133 -106.72716 18082 ft 207 kts 263°
2026-05-05 03:43 37.25943 -106.74492 18045 ft 208 kts 266°
2026-05-05 03:43 37.25788 -106.76304 18051 ft 208 kts 265°
2026-05-05 03:44 37.25573 -106.78116 18051 ft 209 kts 263°
2026-05-05 03:44 37.25361 -106.79900 18046 ft 209 kts 264°
2026-05-05 03:44 37.25127 -106.81708 18044 ft 209 kts 263°
2026-05-05 03:44 37.24862 -106.83504 17976 ft 213 kts 262°
2026-05-05 03:45 37.24660 -106.85316 17873 ft 202 kts 269°
2026-05-05 03:45 37.24571 -106.87019 17776 ft 187 kts 269°
2026-05-05 03:45 37.24482 -106.88610 17670 ft 181 kts 269°
2026-05-05 03:45 37.24391 -106.90253 17265 ft 196 kts 269°
2026-05-05 03:46 37.24277 -106.91981 16978 ft 201 kts 267°
2026-05-05 03:46 37.24156 -106.93722 16847 ft 197 kts 269°
2026-05-05 03:46 37.24065 -106.95408 16642 ft 199 kts 267°
2026-05-05 03:46 37.23935 -106.97157 16418 ft 200 kts 268°
2026-05-05 03:47 37.23820 -106.98886 16206 ft 201 kts 268°
2026-05-05 03:47 37.23709 -107.00636 15954 ft 203 kts 268°
2026-05-05 03:47 37.23626 -107.02391 15813 ft 200 kts 266°
2026-05-05 03:47 37.23458 -107.04135 15571 ft 203 kts 266°
2026-05-05 03:48 37.23301 -107.05918 15327 ft 206 kts 266°
2026-05-05 03:48 37.23118 -107.07725 15104 ft 208 kts 264°
2026-05-05 03:48 37.22931 -107.09491 14970 ft 206 kts 266°
2026-05-05 03:48 37.22812 -107.11320 14667 ft 212 kts 269°
2026-05-05 03:49 37.22730 -107.13166 14503 ft 210 kts 268°
2026-05-05 03:49 37.22567 -107.14967 14367 ft 208 kts 265°
2026-05-05 03:49 37.22425 -107.16775 14166 ft 209 kts 267°
2026-05-05 03:49 37.22285 -107.18604 13803 ft 216 kts 267°
2026-05-05 03:50 37.22126 -107.20481 13585 ft 215 kts 265°
2026-05-05 03:50 37.21951 -107.22324 13423 ft 212 kts 266°
2026-05-05 03:50 37.21839 -107.24179 13169 ft 213 kts 268°
2026-05-05 03:50 37.21725 -107.26006 12997 ft 210 kts 267°
2026-05-05 03:51 37.21571 -107.27831 12979 ft 209 kts 264°
2026-05-05 03:51 37.21402 -107.29623 13059 ft 206 kts 266°
2026-05-05 03:51 37.21268 -107.31410 13124 ft 203 kts 266°
2026-05-05 03:51 37.21102 -107.33179 13057 ft 208 kts 264°
2026-05-05 03:52 37.20962 -107.34995 13016 ft 209 kts 274°
2026-05-05 03:52 37.21183 -107.36788 12812 ft 211 kts 289°
2026-05-05 03:52 37.21904 -107.38394 12517 ft 214 kts 311°
2026-05-05 03:52 37.23002 -107.39651 12216 ft 217 kts 318°
2026-05-05 03:53 37.24032 -107.41084 11912 ft 220 kts 308°
2026-05-05 03:53 37.24927 -107.42618 11691 ft 219 kts 305°
2026-05-05 03:53 37.25783 -107.44209 11425 ft 220 kts 305°
2026-05-05 03:53 37.26629 -107.45783 11191 ft 220 kts 305°
2026-05-05 03:54 37.27502 -107.47349 11040 ft 215 kts 307°
2026-05-05 03:54 37.28373 -107.48848 10951 ft 213 kts 307°
2026-05-05 03:54 37.29198 -107.50355 11034 ft 205 kts 305°
2026-05-05 03:54 37.29980 -107.51842 11028 ft 205 kts 304°
2026-05-05 03:55 37.30483 -107.53518 10984 ft 208 kts 280°
2026-05-05 03:55 37.30360 -107.55335 10658 ft 215 kts 253°
2026-05-05 03:55 37.29645 -107.56970 10343 ft 216 kts 234°
2026-05-05 03:55 37.28628 -107.58338 9959 ft 214 kts 227°
2026-05-05 03:56 37.27663 -107.59726 9718 ft 205 kts 232°
2026-05-05 03:56 37.26888 -107.61121 9647 ft 185 kts 240°
2026-05-05 03:56 37.26251 -107.62472 9249 ft 176 kts 237°
2026-05-05 03:56 37.25555 -107.63653 8980 ft 158 kts 235°
2026-05-05 03:57 37.24936 -107.64709 8788 ft 142 kts 236°
2026-05-05 03:57 37.24363 -107.65699 8814 ft 136 kts 232°
2026-05-05 03:57 37.23684 -107.66531 8770 ft 141 kts 217°
2026-05-05 03:57 37.22903 -107.67284 8650 ft 151 kts 217°
2026-05-05 03:58 37.22062 -107.68128 8421 ft 151 kts 221°
2026-05-05 03:58 37.21292 -107.68985 8145 ft 149 kts 223°
2026-05-05 03:58 37.20538 -107.69865 7825 ft 145 kts 222°
2026-05-05 03:58 37.19798 -107.70668 7576 ft 139 kts 221°
2026-05-05 03:59 37.19064 -107.71409 7416 ft 132 kts 217°
2026-05-05 03:59 37.18349 -107.72108 7258 ft 131 kts 220°
2026-05-05 03:59 37.17641 -107.72849 7093 ft 132 kts 221°
2026-05-05 03:59 37.16986 -107.73634 6955 ft 130 kts 224°
2026-05-05 04:00 37.16286 -107.74323 6780 ft 129 kts 212°
2026-05-05 04:00 37.15577 -107.74970 6696 ft 116 kts 215°
2026-05-05 04:00 37.15070 -107.75450 6689 ft 64 kts 221°
2026-05-05 04:00 37.14821 -107.75691 6689 ft 32 kts 218°
2026-05-05 04:01 37.14797 -107.75778 6689 ft 14 kts 307°
2026-05-05 04:01 37.14864 -107.75817 6689 ft 10 kts 24°
2026-05-05 04:01 37.14932 -107.75757 6689 ft 13 kts 36°
2026-05-05 04:01 37.15015 -107.75678 6689 ft 16 kts 37°
2026-05-05 04:02 37.15110 -107.75585 6689 ft 17 kts 38°
2026-05-05 04:02 37.15203 -107.75495 6689 ft 16 kts 38°
2026-05-05 04:02 37.15300 -107.75403 6689 ft 18 kts 35°
2026-05-05 04:02 37.15400 -107.75303 6689 ft 18 kts 38°
2026-05-05 04:03 37.15507 -107.75200 6689 ft 19 kts 37°
2026-05-05 04:03 37.15617 -107.75099 6689 ft 20 kts 34°
2026-05-05 04:03 37.15729 -107.74993 6689 ft 20 kts 39°
2026-05-05 04:03 37.15842 -107.74887 6689 ft 19 kts 37°
2026-05-05 04:04 37.15899 -107.74861 6689 ft 8 kts 349°
2026-05-05 04:04 37.15940 -107.74910 6689 ft 2 kts 277°
2026-05-05 04:04 37.15912 -107.74944 6689 ft 8 kts 216°
2026-05-05 04:04 37.15890 -107.74991 6689 ft 5 kts 305°
2026-05-05 04:05 37.15894 -107.74999 6689 ft 0 kts 304°